[Iaude] MPEC S07: 2016 RF40 [a=1.28,e=0.16,i=20.9,H=21.4]

mpec at mpc.eps.harvard.edu mpec at mpc.eps.harvard.edu
Mon Sep 19 11:15:17 EDT 2016


M.P.E.C. 2016-S07                                Issued 2016 Sept. 19, 15:12 UT
 
     The Minor Planet Electronic Circulars contain information on unusual
         minor planets and routine data on comets.  They are published
    on behalf of Division F of the International Astronomical Union by the
          Minor Planet Center, Smithsonian Astrophysical Observatory,
                          Cambridge, MA 02138, U.S.A.

             Prepared using the Tamkin Foundation Computer Network

                              MPC at CFA.HARVARD.EDU
            URL http://www.minorplanetcenter.net/    ISSN 1523-6714


                                   2016 RF40
 
Observations:
     K16R40F* C2016 09 10.36423 02 22 35.27 +22 08 20.1          20.8 VqES007G96
     K16R40F  C2016 09 10.36797 02 22 35.95 +22 08 08.2          20.4 VqES007G96
     K16R40F  C2016 09 10.37171 02 22 36.61 +22 07 56.9          20.2 VqES007G96
     K16R40F  C2016 09 10.38036 02 22 38.17 +22 07 31.1          20.4 VqES007G96
     K16R40F  C2016 09 10.48841 02 22 57.41 +22 02 00.7          20.5 VqES007G96
     K16R40F  C2016 09 10.49021 02 22 57.69 +22 01 54.7          20.8 VqES007G96
     K16R40F  C2016 09 10.49200 02 22 58.00 +22 01 49.2          20.7 VqES007G96
     K16R40F "C2016 09 11.30680402 25 34.80 +21 19 08.7          20.2 RtES007705
     K16R40F "C2016 09 11.30781602 25 34.99 +21 19 05.8          20.3 RtES007705
     K16R40F "C2016 09 11.30883002 25 35.22 +21 19 01.8          20.2 RtES007705
     K16R40F  C2016 09 11.37722 02 25 47.64 +21 15 24.4          20.8 VqES007G96
     K16R40F  C2016 09 11.37939 02 25 48.01 +21 15 17.4          20.6 VqES007G96
     K16R40F  C2016 09 11.38251 02 25 48.60 +21 15 07.6          20.4 VqES007G96
     K16R40F  C2016 09 11.38467 02 25 48.98 +21 15 00.7          20.6 VqES007G96
     K16R40F  C2016 09 12.31738 02 28 47.71 +20 23 38.5          20.7 VqES007G96
     K16R40F  C2016 09 12.32060 02 28 48.31 +20 23 27.1          20.5 VqES007G96
     K16R40F  C2016 09 12.32384 02 28 48.91 +20 23 17.1          20.7 VqES007G96
     K16R40F KC2016 09 12.36465602 28 55.54 +20 20 57.0          20.5 VuES007H21
     K16R40F KC2016 09 12.37139302 28 56.74 +20 20 33.6          20.5 VuES007H21
     K16R40F KC2016 09 12.37901702 28 58.10 +20 20 07.9          20.6 VuES007H21
     K16R40F KC2016 09 15.04551 02 37 31.81 +17 38 30.0                qES007J95
     K16R40F KC2016 09 15.06341 02 37 35.12 +17 37 21.9                qES007J95
     K16R40F KC2016 09 15.08126 02 37 38.38 +17 36 12.9          20.3 RqES007J95
     K16R40F "C2016 09 17.28652302 44 47.25 +15 05 55.2          20.2 RtES007705
     K16R40F "C2016 09 17.28753602 44 47.43 +15 05 51.0          20.3 RtES007705
     K16R40F "C2016 09 17.28854602 44 47.65 +15 05 45.7          20.3 RtES007705
 
Observer details:
705 Apache Point.  Observers K. Nault, M. Hammergren, M. Brucker.  Measurer
    K. Nault.  3.5-m f/10 reflector + CCD.
G96 Mt. Lemmon Survey.  Observers A. R. Gibbs, R. A. Kowalski.  Measurers
    E. J. Christensen, D. C. Fuls, A. R. Gibbs, A. D. Grauer, J. A. Johnson,
    R. A. Kowalski, S. M. Larson, G. J. Leonard, R. G. Matheny, R. L. Seaman,
    F. C. Shelly.  1.5-m reflector + 10K CCD.
H21 Astronomical Research Observatory, Westfield.  Observer R. Holmes.
    Measurers S. Foglia, L. Buzzi, T. Linder, R. Holmes.  0.76-m f/3.0
    astrograph + CCD.
J95 Great Shefford.  Observer P. Birtwhistle.  0.40-m f/6.0 Schmidt-Cassegrain
    + CCD.
 
Orbital elements:
2016 RF40                                                Earth MOID = 0.1680 AU
Epoch 2016 July 31.0 TT = JDT 2457600.5                 MPC
M 275.25566              (2000.0)            P               Q
n   0.67890888     Peri.  248.32827     +0.32132645     -0.94676788
a   1.2821192      Node   183.13066     +0.94572392     +0.32189105
e   0.1570616      Incl.   20.90898     +0.04853432     -0.00408982
P   1.45           H   21.4           G   0.15           U   7
Residuals in seconds of arc
160910 G96  0.2-  0.2+    160911 705  0.6+  0.6-    160912 H21  0.1+  0.2-
160910 G96  0.0   0.4-    160911 G96  0.0   0.0     160912 H21  0.0   0.0
160910 G96  0.1-  0.4-    160911 G96  0.3-  0.0     160915 J95  0.1+  0.7-
160910 G96  0.1+  0.0     160911 G96  0.2+  0.2+    160915 J95  0.1+  0.3+
160910 G96  0.4+  0.4+    160911 G96  0.1+  0.2+    160915 J95  0.4-  0.3+
160910 G96  0.2-  0.0     160912 G96  0.1-  0.3+    160917 705  0.1+  0.3+
160910 G96  0.3-  0.0     160912 G96  0.1+  0.3-    160917 705  0.0   0.5+
160911 705  0.2-  0.1-    160912 G96  0.2+  0.5+    160917 705  0.4+  0.5-
160911 705  0.1-  0.2+    160912 H21  0.3+  0.4+

Ephemeris:
2016 RF40                a,e,i = 1.28, 0.16, 21                  q = 1.0807
Date    TT    R. A. (2000) Decl.     Delta      r     Elong.  Phase     V
2016 08 20    01 19 06.6 +32 02 57   0.4225  1.2473   114.4    47.6    21.8
...
2016 09 04    02 02 47.5 +26 39 47   0.3190  1.2113   122.8    44.4    21.0
...
2016 09 12    02 27 45.6 +20 41 35   0.2714  1.1926   127.9    41.7    20.6
...
2016 09 18    02 47 04.5 +14 14 13   0.2416  1.1790   131.6    39.6    20.2
2016 09 19    02 50 19.5 +12 58 38   0.2372  1.1768   132.1    39.3    20.2
2016 09 20    02 53 34.9 +11 39 49   0.2330  1.1746   132.6    39.0    20.1
...
2016 09 26    03 13 06.9 +02 41 47   0.2125  1.1617   134.6    37.9    19.9
...
2016 10 04    03 38 37.3 -11 24 42   0.1992  1.1453   132.9    39.7    19.8
...
2016 10 19    04 21 55.3 -36 22 14   0.2170  1.1185   119.4    50.9    20.2

A. U. Tomatic                (C) Copyright 2016 MPC           M.P.E.C. 2016-S07




More information about the Iaude mailing list